Flin Flon Airport
CYFO : now visible

Airfield :











YOU CAN JOIN US ON...

 
LOGIN :

Register | Disclaimer

   EN    FR    IT 

 









Legend :    VFR   Marginal VFR   IFR   Intensive IFR   Very Intensive IFR
Visi :
Ceiling :
>= 8 km
>= 3000ft
5 to 8 km
1000 to 3000 ft
1500m to 5 km
500 to 1000 ft
800 to 1500m
200 to 500 ft
< 800m
< 200 ft
Symbols :   Thunderstorms  Fog  Heavy snow  Heavy precipitations  Wind > 20 kt






- Airport Elevation : 997 ft
- IATA code : YFO


CYFO - Flin Flon

CURRENT METAR :
  • 272200Z 10004KT 070V130 15SM SKC 19/09 A2961 RMK SLP035 DENSITY ALT 2100FT

EXPIRED METARs :
  • 272100Z 11007KT 050V160 15SM FEW250 19/09 A2961 RMK CI1 CI TR SLP032 DENSITY ALT 2100FT
  • 272000Z 08007KT 050V140 15SM FEW250 18/09 A2961 RMK CI1 CI TR SLP033 DENSITY ALT 2000FT

TAF N/A
CZWG FIR / North America



MET'MAP, your aeronautical weather chart ! - Copyright ORBIFLY December 2007 - Disclaimer

ORBIFLY MET'MAP TEAM :

Programming & Development : Alexandra Zaïnal
Concept & original design : Baudouin d'Aumeries
Assistance for programming : Marc-Olivier Méhu
Technical & hardware support : Manuel Goepfert

Contact : metmap@orbifly.com




SOURCES & CREDITS :

   NOAA       Earth
Advisory